Snowfall_Accumulation
0.0 0.0 0.0 0.0 0.0 0.0 0.0 0.0 0.0 0.0 0.0 0.0 0.0 0.0 0.0 0.0 0.0 0.0 0.0 0.0 0.0 0.0 0.0 0.0 0.0 0.0 0.0 0.0 0.0 0.0 0.0 0.0 0.0 0.0 0.0 0.0 0.0 0.0 0.0 0.0 0.0 0.0 0.0
0.0 0.0 0.0 0.0 0.0 0.0 0.0 0.0 0.0 0.0 0.0 0.0 0.0 0.0 0.0 0.0 0.0 0.0 0.0 0.0 0.0 0.0 0.0 0.0 0.0 0.0 0.0 0.0 0.0 0.0 0.0 0.0 0.0 0.0 0.0 0.0 0.0 0.0 0.0 0.0 0.0 0.0 0.0
0.0 0.0 0.0 0.0 0.0 0.0 0.0 0.0 0.0 0.0 0.0 0.0 0.0 0.0 0.0 0.0 0.0 0.0 0.0 0.0 0.0 0.0 0.0 0.0 0.0 0.0 0.0 0.0 0.0 0.0 0.0 0.0 0.0 0.0 0.0 0.0 0.0 0.0 0.0 0.0 0.0 0.0 0.0
0.0 0.0 0.0 0.0 0.0 0.0 0.0 0.0 0.0 0.0 0.0 0.0 0.0 0.0 0.0 0.0 0.0 0.0 0.0 0.0 0.0 0.0 0.0 0.0 0.0 0.0 0.0 0.0 0.0 0.0 0.0 0.0 0.0 0.0 0.0 0.0 0.0 0.0 0.0 0.0 0.0 0.0 0.0
0.0 0.0 0.0 0.0 0.0 0.0 0.0 0.0 0.0 0.0 0.0 0.0 0.0 0.0 0.0 0.0 0.0 0.0 0.0 0.0 0.0 0.0 0.0 0.0 0.0 0.0 0.0 0.0 0.0 0.0 0.0 0.0 0.0 0.0 0.0 0.0 0.0 0.0 0.0 0.0 0.0 0.0 0.0
0.0 0.0 0.0 0.0 0.0 0.0 0.0 0.0 0.0 0.0 0.0 0.0 0.0 0.0 0.0 0.0 0.0 0.0 0.0 0.0 0.0 0.0 0.0 0.0 0.0 0.0 0.0 0.0 0.0 0.0 0.0 0.0 0.0 0.0 0.0 0.0 0.0 0.0 0.0 0.0 0.0 0.0 0.0
0.0 0.0 0.0 0.0 0.0 0.0 0.0 0.0 0.0 0.0 0.0 0.0 0.1 0.2 0.1 0.1 0.1 0.5 0.5 0.1 0.1 0.1 0.0 0.0 0.0 0.0 0.0 0.0 0.0 0.0 0.0 0.0 0.0 0.0 0.0 0.0 0.0 0.0 0.0 0.0 0.0 0.0 0.0
0.0 0.0 0.0 0.0 0.0 0.0 0.0 0.0 0.0 0.0 0.0 0.0 0.0 0.0 0.0 0.0 0.1 0.1 0.2 0.3 0.2 0.6 0.1 0.0 0.0 0.0 0.0 0.0 0.0 0.0 0.0 0.0 0.0 0.0 0.0 0.0 0.0 0.0 0.0 0.0 0.0 0.0 0.0
0.0 0.0 0.0 0.0 0.0 0.0 0.0 0.0 0.0 0.0 0.0 0.0 0.0 0.0 0.0 0.0 0.0 0.0 0.0 0.0 0.0 0.0 0.0 0.0 0.0 0.0 0.0 0.0 0.0 0.0 0.0 0.0 0.0 0.0 0.0 0.0 0.0 0.0 0.0 0.0 0.0 0.2 0.3
0.0 0.0 0.0 0.0 0.0 0.0 0.0 0.0 0.0 0.0 0.0 0.0 0.0 0.0 0.0 0.0 0.1 0.0 0.0 0.0 0.0 0.0 0.0 0.0 0.0 0.0 0.0 0.0 0.0 0.0 0.0 0.0 0.0 0.0 0.0 0.0 0.0 0.0 0.0 0.0 0.0 0.0 0.2
0.0 0.0 0.0 0.0 0.0 0.0 0.0 0.0 0.0 0.0 0.0 0.0 0.0 0.0 0.0 0.0 0.0 0.0 0.0 0.0 0.0 0.0 0.0 0.0 0.0 0.0 0.0 0.0 0.0 0.0 0.0 0.0 0.0 0.0 0.0 0.0 0.0 0.0 0.0 0.0 0.0 0.0 0.0
0.0 0.0 0.0 0.0 0.0 0.0 0.0 0.0 0.0 0.0 0.0 0.0 0.0 0.0 0.0 0.0 0.1 0.1 0.0 0.0 0.0 0.0 0.0 0.0 0.0 0.0 0.0 0.0 0.0 0.0 0.0 0.0 0.0 0.0 0.0 0.0 0.0 0.0 0.0 0.0 0.0 0.0 0.0
0.4 0.7 0.6 0.7 0.9 0.9 0.7 0.5 0.4 0.3 0.2 0.1 0.1 0.0 0.0 0.0 0.0 0.1 0.1 0.0 0.0 0.0 0.0 0.0 0.0 0.0 0.0 0.0 0.0 0.0 0.0 0.0 0.0 0.0 0.0 0.0 0.0 0.0 0.0 0.0 0.0 0.0 0.0
0.8 0.9 0.9 1.0 1.0 0.8 0.7 0.6 0.5 0.4 0.3 0.3 0.2 0.1 0.1 0.0 0.0 0.0 0.0 0.0 0.0 0.0 0.0 0.0 0.0 0.0 0.0 0.0 0.0 0.0 0.0 0.0 0.0 0.0 0.0 0.0 0.0 0.0 0.0 0.0 0.0 0.0 0.0
1.4 1.3 1.1 1.0 1.1 0.8 0.5 0.3 0.2 0.2 0.2 0.1 0.1 0.1 0.2 0.2 0.1 0.0 0.1 0.1 0.0 0.0 0.0 0.0 0.0 0.0 0.0 0.0 0.0 0.0 0.0 0.0 0.0 0.0 0.0 0.0 nan nan nan 0.0 0.0 0.0 0.0
1.7 1.5 1.5 1.5 1.1 0.8 0.6 0.4 0.5 0.3 0.2 0.2 0.2 0.2 0.1 0.1 0.1 0.2 0.2 0.1 0.1 0.1 0.1 0.0 0.0 0.0 0.0 nan nan 0.0 0.2 0.0 0.0 0.0 0.0 0.0 0.0 0.0 nan nan nan nan 0.0
2.4 2.0 1.6 1.3 0.9 0.6 0.5 0.7 0.3 0.2 0.3 0.4 0.2 0.2 0.1 0.2 0.1 0.1 0.1 0.1 0.1 0.0 0.0 0.0 0.0 0.0 0.0 nan nan nan 0.2 0.2 0.0 0.0 0.0 0.0 0.0 nan 0.0 nan nan nan nan
1.4 1.1 0.8 0.7 0.7 0.5 0.3 0.2 0.3 0.3 0.4 0.3 0.4 0.3 0.2 0.2 0.1 0.0 0.0 0.1 0.0 0.0 0.0 0.0 0.0 0.0 0.0 nan nan nan 0.0 0.3 0.1 0.1 0.0 0.0 0.0 0.0 0.0 0.0 0.0 0.0 0.0
1.4 1.4 1.0 0.7 0.4 0.5 0.8 0.7 0.6 0.5 0.5 0.6 0.4 0.2 0.1 0.1 0.0 0.0 0.0 0.0 0.0 0.0 0.0 0.0 0.0 0.0 0.0 nan nan 0.0 0.0 0.0 0.0 0.0 0.0 0.0 0.0 nan nan 0.0 0.0 0.0 0.0
1.1 0.9 0.4 0.5 0.7 1.1 1.0 0.8 0.8 0.6 0.6 0.4 0.3 0.0 0.0 0.0 0.0 0.0 0.0 0.0 0.0 0.0 0.1 0.0 0.0 nan 0.0 nan nan nan 0.0 0.0 0.0 0.0 0.0 nan 0.0 nan nan 0.1 0.1 0.3 0.0
0.3 0.2 0.4 0.9 1.1 0.9 0.8 0.9 0.6 0.5 0.2 0.1 0.0 0.0 0.0 0.0 0.0 0.0 0.0 0.0 0.0 0.0 0.0 0.0 0.0 0.0 0.0 0.0 nan nan 0.0 0.0 0.0 0.1 0.1 0.0 nan nan nan nan 0.6 0.4 0.5
1.0 1.3 1.1 1.0 0.8 0.5 0.4 0.4 0.3 0.1 0.0 0.0 0.0 0.0 0.0 0.0 0.0 0.0 0.0 0.0 0.0 0.1 0.1 0.1 0.2 0.2 0.0 nan nan nan nan nan 0.3 0.1 0.0 0.0 nan nan nan nan nan nan nan
1.0 0.9 0.8 0.7 0.4 0.3 0.1 0.0 0.0 0.0 0.0 0.0 0.0 0.0 0.0 0.0 0.0 0.0 0.0 0.1 0.1 0.4 0.3 0.4 0.4 0.4 0.1 0.0 nan nan nan nan 0.2 0.3 0.4 nan nan nan nan nan nan nan 0.8
0.8 0.7 0.6 0.5 0.1 0.0 0.0 0.0 0.0 0.0 0.0 0.0 0.0 0.0 0.1 0.0 0.0 0.1 0.2 0.4 0.6 0.9 0.7 1.0 1.1 0.8 0.7 0.2 0.0 0.0 0.1 nan 0.3 nan 0.9 nan 1.4 nan nan 0.4 0.2 0.4 0.8
0.6 0.5 0.2 0.0 0.0 0.0 0.0 0.0 0.0 0.0 0.1 0.1 0.2 0.3 0.1 0.2 0.3 0.3 0.6 0.8 0.4 0.9 2.8 2.7 2.0 3.3 2.6 0.8 0.2 0.9 1.0 0.9 0.8 nan 2.0 1.0 1.1 1.9 0.9 1.0 0.4 0.3 0.5
0.1 0.0 0.0 0.0 0.0 0.0 0.0 0.0 0.0 0.0 0.2 0.4 0.5 0.8 1.0 1.0 1.0 1.6 2.4 nan nan nan nan nan 2.0 2.3 nan nan nan nan nan nan nan 8.3 6.2 2.2 0.9 0.8 1.0 1.9 1.3 1.2 0.9
Water_Equivalent
0.00 0.00 0.00 0.00 0.00 0.00 0.00 0.00 0.00 0.00 0.00 0.00 0.00 0.00 0.00 0.00 0.00 0.00 0.00 0.00 0.00 0.00 0.00 0.00 0.00 0.00 0.00 0.00 0.00 0.00 0.00 0.00 0.00 0.00 0.00 0.00 0.00 0.00 0.00 0.00 0.00 0.00 0.00
0.00 0.00 0.00 0.00 0.00 0.00 0.00 0.00 0.00 0.00 0.00 0.00 0.00 0.00 0.00 0.00 0.00 0.00 0.00 0.00 0.00 0.00 0.00 0.00 0.00 0.00 0.00 0.00 0.00 0.00 0.00 0.00 0.00 0.00 0.00 0.00 0.00 0.00 0.00 0.00 0.00 0.00 0.00
0.00 0.00 0.00 0.00 0.00 0.00 0.00 0.00 0.00 0.00 0.00 0.00 0.00 0.00 0.00 0.00 0.00 0.00 0.00 0.00 0.00 0.00 0.00 0.00 0.00 0.00 0.00 0.00 0.00 0.00 0.00 0.00 0.00 0.00 0.00 0.00 0.00 0.00 0.00 0.00 0.00 0.00 0.00
0.00 0.00 0.00 0.00 0.00 0.00 0.00 0.00 0.00 0.00 0.00 0.00 0.00 0.00 0.00 0.00 0.00 0.00 0.00 0.00 0.00 0.00 0.00 0.00 0.00 0.00 0.00 0.00 0.00 0.00 0.00 0.00 0.00 0.00 0.00 0.00 0.00 0.00 0.00 0.00 0.00 0.00 0.00
0.00 0.00 0.00 0.00 0.00 0.00 0.01 0.00 0.00 0.00 0.00 0.00 0.00 0.00 0.00 0.00 0.00 0.00 0.00 0.00 0.00 0.00 0.00 0.00 0.00 0.00 0.00 0.00 0.00 0.00 0.00 0.00 0.00 0.00 0.00 0.00 0.00 0.00 0.00 0.00 0.00 0.00 0.00
0.00 0.00 0.00 0.00 0.00 0.00 0.00 0.00 0.01 0.01 0.00 0.00 0.00 0.00 0.01 0.00 0.01 0.00 0.00 0.00 0.00 0.00 0.00 0.00 0.00 0.00 0.00 0.00 0.00 0.00 0.00 0.00 0.00 0.00 0.00 0.00 0.00 0.00 0.00 0.00 0.00 0.00 0.00
0.00 0.00 0.00 0.00 0.00 0.00 0.00 0.00 0.00 0.00 0.01 0.01 0.04 0.04 0.03 0.03 0.02 0.12 0.11 0.03 0.02 0.02 0.00 0.00 0.00 0.00 0.00 0.00 0.00 0.00 0.00 0.00 0.00 0.00 0.00 0.00 0.00 0.00 0.00 0.00 0.00 0.00 0.00
0.00 0.00 0.00 0.00 0.00 0.00 0.00 0.00 0.00 0.00 0.00 0.00 0.00 0.00 0.01 0.00 0.02 0.02 0.05 0.08 0.05 0.15 0.03 0.00 0.00 0.00 0.00 0.00 0.00 0.00 0.00 0.00 0.00 0.00 0.00 0.00 0.00 0.00 0.00 0.00 0.01 0.00 0.00
0.00 0.00 0.00 0.00 0.00 0.00 0.00 0.00 0.00 0.00 0.00 0.00 0.00 0.00 0.00 0.00 0.00 0.00 0.00 0.00 0.00 0.00 0.00 0.00 0.00 0.00 0.00 0.00 0.00 0.00 0.00 0.00 0.00 0.00 0.00 0.00 0.00 0.00 0.00 0.00 0.00 0.04 0.06
0.00 0.00 0.00 0.00 0.00 0.00 0.00 0.00 0.00 0.00 0.00 0.00 0.00 0.00 0.01 0.01 0.01 0.01 0.00 0.00 0.00 0.00 0.01 0.00 0.00 0.00 0.00 0.00 0.00 0.00 0.00 0.00 0.00 0.00 0.00 0.00 0.00 0.00 0.00 0.00 0.00 0.00 0.04
0.00 0.00 0.00 0.00 0.00 0.00 0.00 0.00 0.00 0.00 0.00 0.00 0.00 0.00 0.00 0.00 0.00 0.00 0.00 0.00 0.00 0.00 0.00 0.00 0.01 0.00 0.00 0.00 0.00 0.00 0.00 0.00 0.00 0.00 0.00 0.00 0.00 0.00 0.00 0.00 0.00 0.00 0.00
0.01 0.00 0.00 0.01 0.01 0.00 0.00 0.00 0.00 0.00 0.00 0.00 0.00 0.00 0.00 0.00 0.01 0.01 0.00 0.00 0.00 0.00 0.00 0.00 0.00 0.00 0.00 0.00 0.00 0.00 0.00 0.00 0.00 0.00 0.00 0.00 0.00 0.00 0.00 0.00 0.00 0.00 0.00
0.07 0.10 0.09 0.09 0.13 0.12 0.09 0.07 0.06 0.04 0.03 0.01 0.01 0.01 0.00 0.00 0.01 0.03 0.02 0.00 0.00 0.00 0.00 0.00 0.00 0.00 0.00 0.00 0.00 0.00 0.00 0.00 0.00 0.00 0.00 0.00 0.00 0.00 0.00 0.00 0.00 0.00 0.00
0.10 0.11 0.11 0.12 0.12 0.10 0.08 0.08 0.07 0.06 0.04 0.04 0.03 0.02 0.02 0.01 0.01 0.00 0.00 0.00 0.00 0.00 0.00 0.00 0.00 0.00 0.00 0.00 0.00 0.00 0.00 0.00 0.00 0.00 0.00 0.00 0.00 0.00 0.00 0.00 0.00 0.00 0.00
0.17 0.15 0.13 0.12 0.13 0.10 0.07 0.04 0.02 0.03 0.03 0.02 0.01 0.01 0.03 0.03 0.01 0.01 0.01 0.01 0.00 0.00 0.00 0.00 0.00 0.00 0.00 0.00 0.00 0.00 0.00 0.00 0.01 0.00 0.00 0.00 nan nan nan 0.00 0.01 0.01 0.00
0.20 0.18 0.18 0.18 0.14 0.10 0.07 0.06 0.08 0.05 0.04 0.03 0.03 0.04 0.02 0.01 0.02 0.03 0.02 0.01 0.01 0.01 0.01 0.00 0.00 0.00 0.00 nan nan 0.00 0.03 0.00 0.01 0.00 0.00 0.00 0.00 0.00 nan nan nan nan 0.00
0.29 0.24 0.19 0.16 0.11 0.07 0.07 0.09 0.04 0.04 0.05 0.06 0.03 0.04 0.03 0.03 0.02 0.02 0.01 0.01 0.01 0.00 0.01 0.00 0.00 0.00 0.00 nan nan nan 0.02 0.03 0.00 0.00 0.00 0.00 0.00 nan 0.00 nan nan nan nan
0.17 0.14 0.10 0.08 0.08 0.06 0.04 0.03 0.05 0.05 0.06 0.05 0.06 0.04 0.03 0.02 0.01 0.00 0.01 0.01 0.00 0.00 0.00 0.00 0.00 0.00 0.00 nan nan nan 0.01 0.04 0.02 0.01 0.00 0.00 0.00 0.00 0.00 0.00 0.00 0.00 0.00
0.16 0.17 0.12 0.09 0.06 0.07 0.11 0.10 0.09 0.07 0.07 0.08 0.05 0.03 0.01 0.01 0.01 0.00 0.00 0.00 0.00 0.00 0.00 0.00 0.00 0.00 0.00 nan nan 0.00 0.00 0.00 0.00 0.00 0.00 0.00 0.00 nan nan 0.00 0.00 0.00 0.00
0.13 0.10 0.06 0.07 0.09 0.14 0.13 0.10 0.10 0.08 0.08 0.05 0.04 0.01 0.00 0.00 0.00 0.00 0.00 0.00 0.00 0.00 0.04 0.00 0.00 nan 0.00 nan nan nan 0.00 0.00 0.01 0.00 0.00 nan 0.00 nan nan 0.01 0.02 0.04 0.01
0.04 0.03 0.05 0.11 0.12 0.10 0.10 0.09 0.07 0.06 0.03 0.01 0.00 0.00 0.00 0.00 0.00 0.00 0.00 0.00 0.01 0.01 0.01 0.01 0.01 0.01 0.00 0.00 nan nan 0.00 0.00 0.01 0.02 0.01 0.00 nan nan nan nan 0.09 0.06 0.08
0.11 0.15 0.12 0.10 0.08 0.06 0.05 0.04 0.03 0.01 0.00 0.00 0.00 0.00 0.00 0.00 0.00 0.00 0.00 0.01 0.01 0.01 0.03 0.03 0.06 0.05 0.00 nan nan nan nan nan 0.05 0.02 0.00 0.00 nan nan nan nan nan nan nan
0.10 0.10 0.08 0.07 0.04 0.03 0.01 0.01 0.00 0.00 0.00 0.00 0.00 0.00 0.00 0.00 0.00 0.00 0.01 0.04 0.03 0.11 0.07 0.11 0.09 0.11 0.03 0.00 nan nan nan nan 0.03 0.05 0.06 nan nan nan nan nan nan nan 0.12
0.08 0.07 0.06 0.04 0.01 0.00 0.00 0.00 0.00 0.00 0.00 0.00 0.01 0.01 0.02 0.01 0.01 0.04 0.07 0.11 0.16 0.19 0.15 0.19 0.20 0.16 0.16 0.04 0.00 0.00 0.02 nan 0.06 nan 0.13 nan 0.21 nan nan 0.05 0.03 0.06 0.11
0.06 0.05 0.02 0.00 0.00 0.00 0.00 0.00 0.00 0.00 0.01 0.02 0.05 0.08 0.04 0.05 0.06 0.07 0.13 0.19 0.10 0.16 0.35 0.37 0.29 0.47 0.41 0.15 0.04 0.14 0.17 0.16 0.15 nan 0.29 0.19 0.20 0.29 0.17 0.16 0.06 0.08 0.08
0.01 0.00 0.00 0.00 0.00 0.00 0.00 0.00 0.00 0.00 0.03 0.07 0.10 0.15 0.18 0.19 0.19 0.29 0.43 nan nan nan nan nan 0.30 0.35 nan nan nan nan nan nan nan 1.13 0.86 0.38 0.19 0.18 0.17 0.27 0.23 0.21 0.21
SL_Ratio
nan nan nan nan nan nan nan nan nan nan nan nan nan nan nan nan nan nan nan nan nan nan nan nan nan nan nan nan nan nan nan nan nan nan nan nan nan nan nan nan nan nan nan
nan nan nan nan nan nan nan nan nan nan nan nan nan nan nan nan nan nan nan nan nan nan nan nan nan nan nan nan nan nan nan nan nan nan nan nan nan nan nan nan nan nan nan
nan nan nan nan nan nan nan nan nan nan nan nan nan nan nan nan nan nan nan nan nan nan nan nan nan nan nan nan nan nan nan nan nan nan nan nan nan nan nan nan nan nan nan
nan nan nan nan nan nan nan nan nan nan nan nan nan nan nan nan nan nan nan nan nan nan nan nan nan nan nan nan nan nan nan nan nan nan nan nan nan nan nan nan nan nan nan
nan nan nan nan nan nan 3.3 3.6 nan nan nan nan nan nan nan nan nan nan nan nan nan nan nan nan nan nan nan nan nan nan nan nan nan nan nan nan nan nan nan nan nan nan nan
nan nan nan nan nan nan nan nan 2.8 3.1 3.2 3.8 nan nan 3.5 3.5 4.0 3.8 nan nan nan nan nan nan nan nan nan nan nan nan nan nan nan nan nan nan nan nan nan nan nan 0.0 nan
nan nan nan nan nan nan nan nan nan 2.9 3.2 3.3 3.9 3.9 3.9 4.2 4.3 3.9 4.5 3.8 3.8 4.0 nan nan nan nan nan nan nan nan nan nan nan nan nan nan nan nan nan nan nan nan nan
nan nan nan nan nan nan nan nan nan nan nan nan nan nan 2.8 3.1 3.4 3.2 3.8 3.8 3.2 4.1 3.8 nan nan nan nan nan nan nan nan nan nan nan nan nan nan nan nan nan 4.1 nan nan
nan nan nan nan nan nan nan nan nan nan 5.0 nan nan nan 3.5 3.6 5.0 nan nan nan 5.0 nan nan nan nan nan nan nan nan nan nan nan nan nan nan nan nan nan nan nan nan 4.1 4.9
nan nan nan nan nan nan nan nan nan nan nan nan nan nan 3.7 3.4 3.8 3.5 3.8 4.0 nan 3.6 3.1 nan nan nan nan nan nan nan nan nan nan nan nan nan nan nan nan nan nan nan 4.8
nan nan nan nan nan nan nan nan nan nan nan nan nan nan nan nan nan nan nan 2.5 nan nan nan 3.3 3.3 3.1 nan nan nan nan nan nan nan nan nan nan nan nan nan 5.0 5.0 nan nan
2.9 3.0 5.0 5.5 6.1 2.9 5.0 nan nan nan nan 5.0 nan 4.3 5.0 5.0 4.4 4.2 3.9 nan nan nan nan nan nan nan 2.5 nan nan nan nan nan nan nan nan nan nan nan nan nan nan nan nan
6.1 6.7 7.0 7.5 7.5 7.4 7.4 7.1 7.1 6.8 6.4 6.2 4.6 5.2 5.0 nan 4.3 4.4 3.8 5.0 nan nan 5.0 nan nan nan nan nan nan nan nan nan nan nan nan nan nan nan nan nan nan nan nan
7.4 7.8 8.1 8.3 8.1 8.0 7.9 7.6 7.2 6.9 6.5 6.1 6.4 6.0 4.8 4.8 4.4 3.9 nan 4.2 5.0 7.5 nan nan nan nan nan nan nan nan nan nan nan nan nan nan nan nan nan nan nan nan 4.5
8.1 8.3 8.6 8.7 8.2 7.8 7.5 7.6 7.5 6.0 5.9 6.1 6.5 6.7 5.4 5.0 5.3 6.3 6.7 6.7 6.8 5.0 7.5 nan nan nan nan nan nan nan nan nan 7.2 7.5 nan nan nan nan nan nan 6.4 6.8 7.2
8.6 8.7 8.2 7.9 8.2 8.4 8.5 7.7 6.9 6.5 5.7 5.6 5.8 5.4 5.5 5.3 6.1 6.5 6.7 7.1 7.1 7.6 7.6 7.5 6.7 nan nan nan nan 6.0 7.1 5.0 7.2 7.5 10.0 nan nan nan nan nan nan nan nan
8.2 8.2 8.4 8.3 8.3 8.6 8.1 7.5 7.4 5.8 6.0 6.2 5.8 5.8 5.8 6.6 6.8 7.0 7.3 7.8 7.7 7.7 7.9 8.2 7.7 7.5 5.0 nan nan nan 6.6 7.3 7.2 7.2 7.5 10.0 nan nan nan nan nan nan nan
8.3 8.4 8.6 8.5 8.2 7.4 7.1 6.6 6.5 6.4 6.5 6.7 6.7 6.7 6.8 7.2 7.0 8.0 8.2 8.1 8.0 8.5 7.5 7.5 nan 8.3 nan nan nan nan 6.3 7.5 7.7 8.1 7.5 nan nan nan nan nan 5.0 nan nan
8.7 8.6 8.2 8.0 7.5 7.5 7.3 7.0 7.0 6.8 6.9 7.2 7.3 7.2 7.3 7.8 7.5 nan nan nan nan nan nan nan nan nan nan nan nan 7.5 nan nan nan nan nan nan nan nan nan 6.8 7.5 6.7 10.0
8.4 8.6 7.6 7.6 7.6 8.1 7.7 7.6 7.8 7.7 8.3 7.7 7.7 7.4 nan nan nan nan nan nan nan nan 3.1 2.5 0.0 nan nan nan nan nan nan 4.1 3.3 nan nan nan 7.5 nan nan 6.2 6.7 7.3 7.2
7.5 7.4 7.5 8.4 9.1 8.7 8.8 9.3 8.8 9.3 7.8 7.5 nan nan nan nan nan nan nan nan 3.5 3.8 3.8 3.9 3.5 3.3 nan nan nan nan 8.3 7.5 4.4 5.4 4.1 nan nan nan nan nan 6.8 6.2 6.3
8.8 8.8 9.3 9.5 9.3 9.0 9.2 9.6 9.8 8.3 7.5 nan nan nan nan nan nan nan 3.3 3.2 3.6 3.9 3.5 3.6 3.5 3.4 nan nan nan nan nan nan 6.4 5.2 7.5 nan nan nan nan nan nan nan nan
9.5 9.3 9.6 9.7 9.3 8.6 9.0 9.7 nan nan nan nan nan nan nan nan nan 3.0 3.2 2.9 3.3 3.7 3.9 3.9 4.2 4.1 3.4 nan nan nan nan nan 6.7 7.1 7.5 nan nan nan nan nan nan nan 6.6
10.2 9.8 10.2 10.5 10.7 nan nan nan nan nan nan 5.6 3.8 3.2 3.3 3.3 3.0 2.8 2.8 3.5 3.8 4.5 4.9 5.3 5.5 4.9 4.5 4.3 4.4 3.6 4.6 nan 4.1 nan 6.5 nan 6.9 nan nan 7.4 7.1 6.9 7.4
10.3 10.2 11.0 11.9 nan nan nan nan nan nan 6.3 4.3 3.9 4.2 3.5 4.0 4.2 3.9 4.4 4.5 4.4 5.3 7.9 7.2 6.7 7.0 6.4 5.0 5.4 6.3 5.7 5.5 5.3 nan 6.7 5.2 5.6 6.5 5.7 6.1 5.6 4.4 6.0
11.0 8.3 nan nan 7.5 6.7 nan nan nan 6.2 6.4 5.5 5.0 5.3 5.6 5.3 5.1 5.5 5.6 nan nan nan nan nan 6.7 6.6 nan nan nan nan nan nan nan 7.4 7.3 5.7 4.7 4.6 5.9 7.0 5.7 5.7 4.4